Retour au catalogue

STARLINK-30602

ActifCommunicationsVLEO
NORAD 58081·PAYLOAD·🇺🇸 United States

Lancé Oct 18, 2023 depuis Cape Canaveral Space Force Station

Loading…

Prochains Passages (prochaines 24 heures)

TLE

FraisSource: CelesTrak SupGP

Époque: Sep 14, 2026, 22:23 UTC

1 58081C 23160G   26257.93312500  .00047157  00000+0  17075-2 0  2571
2 58081  42.9996  92.5950 0001308 271.9896 230.6017 15.27565001    19

Suivez STARLINK-30602 en temps réel avec AllMySat

Download on the App Store